Back to catalog

PROBA 1

AliveScienceSSO
NORAD 26958·PAYLOAD·🇪🇺 EU

Launched Oct 22, 2001 from Satish Dhawan Space Centre

Loading…

Next Passes (next 24 hours)

TLE

FreshSource: Space-Track

Epoch: Sep 14, 2026, 11:15 UTC

1 26958U 01049B   26257.46930806  .00000410  00000-0  30559-4 0  9993
2 26958  97.9612 269.1526 0054331 179.1869 180.9456 15.07797032357070

Track PROBA 1 in real time with AllMySat

Download on the App Store